Hourly Weather Roundup
Issued by NWS Central Illinois

Home | Current Version | Previous Version | Text Only | Print | Product List | Glossary On
Versions: 1 2 3 4 5 6 7 8 9 10 11 12 13 14 15 16 17 18 19 20 21 22 23 24 25 26 27 28 29 30 31 32 33 34 35 36 37 38 39 40 41 42 43 44 45 46 47 48 49 50
000
NZUS43 KILX 252210
HWRILX

Area Weather Roundup
National Weather Service Lincoln IL
500 PM CDT SUN JUN 25 2017

NOTE:  "FAIR" indicates few or no clouds below 12,000 feet, with
       no sigificant weather and/or obstructions to visibility.


CITY           SKY/WX    TMP DP  RH WIND       PRES   REMARKS
Bloomington    PTSUNNY   72  47  40 W16G23    30.15S
Champaign      PTSUNNY   73  44  35 W13       30.14S
Danville       PTSUNNY   73  47  39 W10G23    30.10S
Decatur        MOSUNNY   74  46  36 W14       30.15S
Effingham      SUNNY     80  47  31 W20       30.16S
Flora          SUNNY    N/A N/A N/A W14G20    30.14F
Galesburg      MOSUNNY   70  48  46 NW13G22   30.17S
Jacksonville   MOSUNNY   73  45  36 W16G23    30.18S
Lacon          PTSUNNY   70  49  48 NW9G26    30.13S
Lawrenceville  SUNNY     80  45  28 NW20G26   30.13F
Litchfield     SUNNY     76  47  36 NW14G22   30.16F
$$


CITY           SKY/WX    TMP DP  RH WIND       PRES   REMARKS
Lincoln        MOSUNNY   75  47  37 W8G16     30.16R
Macomb         PTSUNNY   73  46  38 W14       30.20S
Mattoon        PTSUNNY   75  47  36 W14       30.13F
Mt Carmel AP   SUNNY     79  45  30 NW16G24   30.13F
Olney-Noble AP SUNNY     78  47  33 W17G24    30.14S
Paris AP       MOSUNNY   75  50  41 W9        30.13F
Peoria         PTSUNNY   70  47  43 W14G21    30.15S
Pontiac        PTSUNNY   71  47  42 NW17      30.13S
Rantoul        MOSUNNY   76  47  36 W16G24    30.13S
Robinson       SUNNY     78  47  33 NW20      30.14S
Springfield    MOSUNNY   76  47  35 W16G24    30.16F
Taylorville    MOSUNNY   75  48  37 W18G25    30.16S
$$

...REGIONAL REPORTS...


CITY           SKY/WX    TMP DP  RH WIND       PRES   REMARKS
Chicago O`Hare PTSUNNY   69  47  45 W16G24    30.06F
Kankakee       NOT AVBL
Moline         MOSUNNY   69  49  48 NW15      30.15F
Mount Sterling MOSUNNY   70  46  41 NW9G18    30.19S
Mount Vernon   SUNNY     81  48  31 VRB7G16   30.15F HX  80
Pittsfield     MOSUNNY   74  47  37 W15G26    30.20S
Quincy         SUNNY     74  46  36 NW13G26   30.19F
Rockford       PTSUNNY   66  48  52 NW16G25   30.11F
$$


CITY           SKY/WX    TMP DP  RH WIND       PRES   REMARKS
Burlington     PTSUNNY   72  46  39 VRB7G18   30.17S
Cedar Rapids   PTSUNNY   68  49  50 NW17      30.16S
Des Moines     MOSUNNY   73  42  32 NW14G21   30.20F
Kirksville     SUNNY     74  45  35 W14G21    30.22F
Ottumwa        SUNNY     74  42  31 NW15G23   30.20S
St Louis       MOSUNNY   83  45  26 NW18G26   30.17S HX  81
$$


CITY           SKY/WX    TMP DP  RH WIND       PRES   REMARKS
Terre Haute    MOSUNNY   76  44  32 W8        30.12F
Evansville     MOSUNNY   82  44  26 W15G21    30.14F HX  80
Indianapolis   MOSUNNY   74  46  36 W20       30.11F
Lafayette      PTSUNNY   71  48  43 W13       30.10F
Madison        PTSUNNY   65  50  58 W9        30.08F
Milwaukee      MOSUNNY   70  47  43 W16G22    30.04S
$$






USA.gov is the U.S. government's official web portal to all federal, state and local government web resources and services.